"Sample Date","Sample Time","Sample Value","Units","Flow Rate","Sample Interval","Number Channels","Micron Size 0","Counts/Channel 0","Micron Size 1","Counts/Channel 1","Micron Size 2","Counts/Channel 2","Micron Size 3","Counts/Channel 3","Micron Size 4","Counts/Channel 4","Micron Size 5","Counts/Channel 5","Micron Size 6","Counts/Channel 6","Micron Size 7","Counts/Channel 7","Micron Size 8","Counts/Channel 8","Micron Size 9","Counts/Channel 9","Micron Size 10","Counts/Channel 10","Micron Size 11","Counts/Channel 11","Micron Size 12","Counts/Channel 12","Micron Size 13","Counts/Channel 13","Micron Size 14","Counts/Channel 14","Micron Size 15","Counts/Channel 15","Micron Size 16","Counts/Channel 16","Micron Size 17","Counts/Channel 17","Micron Size 18","Counts/Channel 18","Micron Size 19","Counts/Channel 19","Micron Size 20","Counts/Channel 20","Micron Size 21","Counts/Channel 21","Micron Size 22","Counts/Channel 22","Micron Size 23","Counts/Channel 23","Micron Size 24","Counts/Channel 24","Micron Size 25","Counts/Channel 25","Micron Size 26","Counts/Channel 26","Micron Size 27","Counts/Channel 27","Micron Size 28","Counts/Channel 28","Micron Size 29","Counts/Channel 29","Micron Size 30","Counts/Channel 30","Micron Size 31","Counts/Channel 31"
"03/06/08","17:00:02",38362.000,"cc",28309.414,6.00,6,0.100,35518.000,0.200,2440.000,0.300,342.000,0.500,61.000,1.000,1.000,5.000,0
"03/06/08","17:00:08",38283.000,"cc",28318.832,6.00,6,0.100,35394.000,0.200,2480.000,0.300,339.000,0.500,65.000,1.000,5.000,5.000,0
"03/06/08","17:00:14",38278.000,"cc",28257.518,6.00,6,0.100,35402.000,0.200,2443.000,0.300,366.000,0.500,63.000,1.000,4.000,5.000,0
"03/06/08","17:00:20",37682.000,"cc",28414.711,6.00,6,0.100,34996.000,0.200,2322.000,0.300,323.000,0.500,39.000,1.000,2.000,5.000,0
"03/06/08","17:00:26",38182.000,"cc",28367.537,6.00,6,0.100,35177.000,0.200,2566.000,0.300,363.000,0.500,72.000,1.000,4.000,5.000,0
"03/06/08","17:00:32",38056.000,"cc",28327.857,6.00,6,0.100,35152.000,0.200,2471.000,0.300,379.000,0.500,54.000,1.000,0,5.000,0
"03/06/08","17:00:38",37954.000,"cc",28315.311,6.00,6,0.100,35144.000,0.200,2406.000,0.300,352.000,0.500,51.000,1.000,1.000,5.000,0
"03/06/08","17:00:44",37728.000,"cc",28243.182,6.00,6,0.100,34923.000,0.200,2460.000,0.300,301.000,0.500,43.000,1.000,1.000,5.000,0
"03/06/08","17:00:50",37846.000,"cc",28345.242,6.00,6,0.100,35062.000,0.200,2430.000,0.300,308.000,0.500,44.000,1.000,2.000,5.000,0
"03/06/08","17:00:56",37838.000,"cc",28362.367,6.00,6,0.100,35077.000,0.200,2364.000,0.300,332.000,0.500,63.000,1.000,2.000,5.000,0
"03/06/08","17:01:02",38325.000,"cc",28353.975,6.00,6,0.100,35540.000,0.200,2405.000,0.300,333.000,0.500,46.000,1.000,1.000,5.000,0
"03/06/08","17:01:08",37668.000,"cc",28203.094,6.00,6,0.100,34783.000,0.200,2540.000,0.300,294.000,0.500,51.000,1.000,0,5.000,0
"03/06/08","17:01:14",38267.000,"cc",28279.404,6.00,6,0.100,35473.000,0.200,2437.000,0.300,316.000,0.500,36.000,1.000,5.000,5.000,0
"03/06/08","17:01:20",38384.000,"cc",28373.514,6.00,6,0.100,35595.000,0.200,2390.000,0.300,345.000,0.500,52.000,1.000,2.000,5.000,0
"03/06/08","17:01:26",38057.000,"cc",28351.449,6.00,6,0.100,35262.000,0.200,2438.000,0.300,308.000,0.500,49.000,1.000,0,5.000,0
"03/06/08","17:01:32",37943.000,"cc",28287.969,6.00,6,0.100,35026.000,0.200,2499.000,0.300,347.000,0.500,65.000,1.000,6.000,5.000,0
"03/06/08","17:01:38",38143.000,"cc",28300.195,6.00,6,0.100,35221.000,0.200,2493.000,0.300,363.000,0.500,61.000,1.000,5.000,5.000,0
"03/06/08","17:01:44",38282.000,"cc",28325.400,6.00,6,0.100,35229.000,0.200,2585.000,0.300,407.000,0.500,59.000,1.000,2.000,5.000,0
"03/06/08","17:01:50",38182.000,"cc",28310.555,6.00,6,0.100,35295.000,0.200,2472.000,0.300,350.000,0.500,63.000,1.000,2.000,5.000,0
"03/06/08","17:01:56",38321.000,"cc",28314.949,6.00,6,0.100,35408.000,0.200,2469.000,0.300,367.000,0.500,74.000,1.000,3.000,5.000,0
"03/06/08","17:02:02",37940.000,"cc",28308.592,6.00,6,0.100,35001.000,0.200,2511.000,0.300,356.000,0.500,69.000,1.000,3.000,5.000,0
"03/06/08","17:02:08",37832.000,"cc",28272.731,6.00,6,0.100,34963.000,0.200,2410.000,0.300,366.000,0.500,89.000,1.000,4.000,5.000,0
"03/06/08","17:02:14",37575.000,"cc",28331.219,6.00,6,0.100,34748.000,0.200,2420.000,0.300,333.000,0.500,71.000,1.000,3.000,5.000,0
"03/06/08","17:02:20",38240.000,"cc",28332.256,6.00,6,0.100,35403.000,0.200,2426.000,0.300,349.000,0.500,62.000,1.000,0,5.000,0
"03/06/08","17:02:26",38057.000,"cc",28249.102,6.00,6,0.100,35241.000,0.200,2439.000,0.300,326.000,0.500,49.000,1.000,2.000,5.000,0
"03/06/08","17:02:32",37527.000,"cc",28325.811,6.00,6,0.100,34809.000,0.200,2367.000,0.300,311.000,0.500,38.000,1.000,2.000,5.000,0
"03/06/08","17:02:38",38278.000,"cc",28360.135,6.00,6,0.100,35312.000,0.200,2490.000,0.300,394.000,0.500,81.000,1.000,1.000,5.000,0
"03/06/08","17:02:44",37951.000,"cc",28358.871,6.00,6,0.100,35274.000,0.200,2337.000,0.300,298.000,0.500,40.000,1.000,2.000,5.000,0
"03/06/08","17:02:50",37923.000,"cc",28314.428,6.00,6,0.100,35006.000,0.200,2436.000,0.300,407.000,0.500,72.000,1.000,2.000,5.000,0
"03/06/08","17:02:56",37464.000,"cc",28283.795,6.00,6,0.100,34730.000,0.200,2384.000,0.300,293.000,0.500,53.000,1.000,4.000,5.000,0
"03/06/08","17:03:02",37829.000,"cc",28271.834,6.00,6,0.100,35002.000,0.200,2380.000,0.300,363.000,0.500,79.000,1.000,5.000,5.000,0
"03/06/08","17:03:08",38132.000,"cc",28353.867,6.00,6,0.100,35282.000,0.200,2389.000,0.300,374.000,0.500,86.000,1.000,1.000,5.000,0
"03/06/08","17:03:14",37180.000,"cc",28388.565,6.00,6,0.100,34348.000,0.200,2352.000,0.300,408.000,0.500,70.000,1.000,2.000,5.000,0
"03/06/08","17:03:20",37121.000,"cc",28319.373,6.00,6,0.100,34352.000,0.200,2348.000,0.300,358.000,0.500,61.000,1.000,2.000,5.000,0
"03/06/08","17:03:26",37400.000,"cc",28287.768,6.00,6,0.100,34709.000,0.200,2329.000,0.300,306.000,0.500,56.000,1.000,0,5.000,0
"03/06/08","17:03:32",37594.000,"cc",28253.379,6.00,6,0.100,34748.000,0.200,2413.000,0.300,373.000,0.500,58.000,1.000,2.000,5.000,0
"03/06/08","17:03:38",37741.000,"cc",28344.223,6.00,6,0.100,34843.000,0.200,2458.000,0.300,375.000,0.500,62.000,1.000,3.000,5.000,0
"03/06/08","17:03:44",37499.000,"cc",28348.553,6.00,6,0.100,34703.000,0.200,2379.000,0.300,364.000,0.500,53.000,1.000,0,5.000,0
"03/06/08","17:03:50",37413.000,"cc",28361.723,6.00,6,0.100,34610.000,0.200,2420.000,0.300,328.000,0.500,53.000,1.000,2.000,5.000,0
"03/06/08","17:03:56",37731.000,"cc",28281.963,6.00,6,0.100,34816.000,0.200,2434.000,0.300,413.000,0.500,64.000,1.000,4.000,5.000,0
"03/06/08","17:04:02",37448.000,"cc",28325.811,6.00,6,0.100,34732.000,0.200,2356.000,0.300,295.000,0.500,63.000,1.000,2.000,5.000,0
"03/06/08","17:04:08",37533.000,"cc",28284.441,6.00,6,0.100,34837.000,0.200,2301.000,0.300,323.000,0.500,68.000,1.000,4.000,5.000,0
"03/06/08","17:04:14",37469.000,"cc",28301.231,6.00,6,0.100,34672.000,0.200,2357.000,0.300,378.000,0.500,60.000,1.000,2.000,5.000,0
"03/06/08","17:04:20",37349.000,"cc",28316.510,6.00,6,0.100,34621.000,0.200,2361.000,0.300,311.000,0.500,55.000,1.000,1.000,5.000,0
"03/06/08","17:04:26",37521.000,"cc",28327.617,6.00,6,0.100,34612.000,0.200,2459.000,0.300,362.000,0.500,81.000,1.000,7.000,5.000,0
"03/06/08","17:04:32",37566.000,"cc",28319.402,6.00,6,0.100,34617.000,0.200,2446.000,0.300,418.000,0.500,82.000,1.000,3.000,5.000,0
"03/06/08","17:04:38",37468.000,"cc",28329.102,6.00,6,0.100,34760.000,0.200,2313.000,0.300,325.000,0.500,64.000,1.000,6.000,5.000,0
"03/06/08","17:04:44",37515.000,"cc",28312.088,6.00,6,0.100,34591.000,0.200,2421.000,0.300,429.000,0.500,74.000,1.000,0,5.000,0
"03/06/08","17:04:50",37459.000,"cc",28390.326,6.00,6,0.100,34687.000,0.200,2343.000,0.300,372.000,0.500,57.000,1.000,0,5.000,0
"03/06/08","17:04:56",37359.000,"cc",28295.379,6.00,6,0.100,34465.000,0.200,2433.000,0.300,383.000,0.500,75.000,1.000,3.000,5.000,0
"03/06/08","17:05:02",37461.000,"cc",28274.889,6.00,6,0.100,34548.000,0.200,2406.000,0.300,420.000,0.500,83.000,1.000,4.000,5.000,0
"03/06/08","17:05:08",37271.000,"cc",28342.107,6.00,6,0.100,34559.000,0.200,2334.000,0.300,327.000,0.500,50.000,1.000,1.000,5.000,0
"03/06/08","17:05:14",37369.000,"cc",28262.637,6.00,6,0.100,34591.000,0.200,2362.000,0.300,342.000,0.500,69.000,1.000,5.000,5.000,0
"03/06/08","17:05:20",37051.000,"cc",28428.848,6.00,6,0.100,34346.000,0.200,2287.000,0.300,347.000,0.500,69.000,1.000,2.000,5.000,0
"03/06/08","17:05:26",37542.000,"cc",28242.445,6.00,6,0.100,34558.000,0.200,2433.000,0.300,451.000,0.500,95.000,1.000,5.000,5.000,0
"03/06/08","17:05:32",37470.000,"cc",28290.742,6.00,6,0.100,34594.000,0.200,2439.000,0.300,366.000,0.500,70.000,1.000,1.000,5.000,0
"03/06/08","17:05:38",37411.000,"cc",28333.494,6.00,6,0.100,34533.000,0.200,2418.000,0.300,376.000,0.500,79.000,1.000,5.000,5.000,0
"03/06/08","17:05:44",37543.000,"cc",28407.926,6.00,6,0.100,34632.000,0.200,2450.000,0.300,370.000,0.500,86.000,1.000,5.000,5.000,0
"03/06/08","17:05:50",37437.000,"cc",28277.000,6.00,6,0.100,34650.000,0.200,2419.000,0.300,313.000,0.500,54.000,1.000,1.000,5.000,0
"03/06/08","17:05:56",37195.000,"cc",28319.199,6.00,6,0.100,34466.000,0.200,2378.000,0.300,302.000,0.500,48.000,1.000,1.000,5.000,0
"03/06/08","17:06:02",37319.000,"cc",28316.953,6.00,6,0.100,34576.000,0.200,2343.000,0.300,341.000,0.500,58.000,1.000,1.000,5.000,0
"03/06/08","17:06:08",37188.000,"cc",28260.736,6.00,6,0.100,34311.000,0.200,2396.000,0.300,393.000,0.500,87.000,1.000,1.000,5.000,0
"03/06/08","17:06:14",36984.000,"cc",28338.406,6.00,6,0.100,34437.000,0.200,2218.000,0.300,291.000,0.500,36.000,1.000,2.000,5.000,0
"03/06/08","17:06:20",37400.000,"cc",28261.854,6.00,6,0.100,34634.000,0.200,2358.000,0.300,346.000,0.500,61.000,1.000,1.000,5.000,0
"03/06/08","17:06:26",37055.000,"cc",28304.441,6.00,6,0.100,34445.000,0.200,2265.000,0.300,293.000,0.500,50.000,1.000,2.000,5.000,0
"03/06/08","17:06:32",36945.000,"cc",28405.869,6.00,6,0.100,34285.000,0.200,2307.000,0.300,322.000,0.500,30.000,1.000,1.000,5.000,0
"03/06/08","17:06:38",37293.000,"cc",28294.137,6.00,6,0.100,34456.000,0.200,2400.000,0.300,363.000,0.500,73.000,1.000,1.000,5.000,0
"03/06/08","17:06:44",37369.000,"cc",28291.326,6.00,6,0.100,34561.000,0.200,2358.000,0.300,362.000,0.500,86.000,1.000,2.000,5.000,0
"03/06/08","17:06:50",37377.000,"cc",28337.742,6.00,6,0.100,34691.000,0.200,2287.000,0.300,331.000,0.500,65.000,1.000,3.000,5.000,0
"03/06/08","17:06:56",36938.000,"cc",28282.809,6.00,6,0.100,34176.000,0.200,2385.000,0.300,316.000,0.500,56.000,1.000,5.000,5.000,0
"03/06/08","17:07:02",37471.000,"cc",28291.453,6.00,6,0.100,34694.000,0.200,2351.000,0.300,362.000,0.500,64.000,1.000,0,5.000,0
"03/06/08","17:07:08",37178.000,"cc",28304.092,6.00,6,0.100,34354.000,0.200,2407.000,0.300,360.000,0.500,55.000,1.000,2.000,5.000,0
"03/06/08","17:07:14",36953.000,"cc",28359.232,6.00,6,0.100,34251.000,0.200,2320.000,0.300,325.000,0.500,54.000,1.000,3.000,5.000,0
"03/06/08","17:07:20",37377.000,"cc",28379.330,6.00,6,0.100,34508.000,0.200,2442.000,0.300,346.000,0.500,78.000,1.000,3.000,5.000,0
"03/06/08","17:07:26",37639.000,"cc",28357.174,6.00,6,0.100,34760.000,0.200,2366.000,0.300,412.000,0.500,99.000,1.000,2.000,5.000,0
"03/06/08","17:07:32",37731.000,"cc",28272.703,6.00,6,0.100,34752.000,0.200,2517.000,0.300,374.000,0.500,85.000,1.000,3.000,5.000,0
"03/06/08","17:07:38",38002.000,"cc",28284.832,6.00,6,0.100,35095.000,0.200,2423.000,0.300,402.000,0.500,80.000,1.000,2.000,5.000,0
"03/06/08","17:07:44",37672.000,"cc",28300.096,6.00,6,0.100,34694.000,0.200,2456.000,0.300,418.000,0.500,99.000,1.000,5.000,5.000,0
"03/06/08","17:07:50",37873.000,"cc",28374.805,6.00,6,0.100,34906.000,0.200,2474.000,0.300,416.000,0.500,74.000,1.000,3.000,5.000,0
"03/06/08","17:07:56",37337.000,"cc",28311.322,6.00,6,0.100,34481.000,0.200,2414.000,0.300,364.000,0.500,77.000,1.000,1.000,5.000,0
"03/06/08","17:08:02",37259.000,"cc",28329.596,6.00,6,0.100,34542.000,0.200,2344.000,0.300,327.000,0.500,46.000,1.000,0,5.000,0
"03/06/08","17:08:08",37117.000,"cc",28359.535,6.00,6,0.100,34354.000,0.200,2332.000,0.300,355.000,0.500,71.000,1.000,5.000,5.000,0
"03/06/08","17:08:14",36505.000,"cc",28348.316,6.00,6,0.100,33959.000,0.200,2182.000,0.300,307.000,0.500,57.000,1.000,0,5.000,0
"03/06/08","17:08:20",37007.000,"cc",28289.723,6.00,6,0.100,34229.000,0.200,2338.000,0.300,377.000,0.500,61.000,1.000,2.000,5.000,0
"03/06/08","17:08:26",37149.000,"cc",28319.834,6.00,6,0.100,34336.000,0.200,2392.000,0.300,344.000,0.500,76.000,1.000,1.000,5.000,0
"03/06/08","17:08:32",37158.000,"cc",28318.402,6.00,6,0.100,34264.000,0.200,2375.000,0.300,433.000,0.500,83.000,1.000,3.000,5.000,0
"03/06/08","17:08:38",37096.000,"cc",28220.492,6.00,6,0.100,34303.000,0.200,2329.000,0.300,378.000,0.500,80.000,1.000,6.000,5.000,0
"03/06/08","17:08:44",37181.000,"cc",28370.465,6.00,6,0.100,34331.000,0.200,2388.000,0.300,389.000,0.500,70.000,1.000,3.000,5.000,0
"03/06/08","17:08:50",37592.000,"cc",28318.572,6.00,6,0.100,34797.000,0.200,2350.000,0.300,374.000,0.500,68.000,1.000,3.000,5.000,0
"03/06/08","17:08:56",37483.000,"cc",28293.561,6.00,6,0.100,34574.000,0.200,2449.000,0.300,401.000,0.500,57.000,1.000,2.000,5.000,0
"03/06/08","17:09:02",37316.000,"cc",28332.807,6.00,6,0.100,34485.000,0.200,2330.000,0.300,417.000,0.500,83.000,1.000,1.000,5.000,0
"03/06/08","17:09:08",37315.000,"cc",28294.565,6.00,6,0.100,34475.000,0.200,2431.000,0.300,347.000,0.500,61.000,1.000,1.000,5.000,0
"03/06/08","17:09:14",37462.000,"cc",28299.068,6.00,6,0.100,34728.000,0.200,2299.000,0.300,352.000,0.500,76.000,1.000,7.000,5.000,0
"03/06/08","17:09:20",36872.000,"cc",28385.203,6.00,6,0.100,34019.000,0.200,2425.000,0.300,377.000,0.500,50.000,1.000,1.000,5.000,0
"03/06/08","17:09:26",36530.000,"cc",28303.787,6.00,6,0.100,33785.000,0.200,2332.000,0.300,340.000,0.500,71.000,1.000,2.000,5.000,0
"03/06/08","17:09:32",36822.000,"cc",28173.578,6.00,6,0.100,34102.000,0.200,2325.000,0.300,344.000,0.500,49.000,1.000,2.000,5.000,0
"03/06/08","17:09:38",36963.000,"cc",28287.789,6.00,6,0.100,34140.000,0.200,2364.000,0.300,380.000,0.500,76.000,1.000,3.000,5.000,0
"03/06/08","17:09:44",37141.000,"cc",28318.023,6.00,6,0.100,34456.000,0.200,2240.000,0.300,371.000,0.500,73.000,1.000,1.000,5.000,0
"03/06/08","17:09:50",36907.000,"cc",28267.680,6.00,6,0.100,34137.000,0.200,2373.000,0.300,330.000,0.500,66.000,1.000,1.000,5.000,0
"03/06/08","17:09:56",36840.000,"cc",28331.143,6.00,6,0.100,34171.000,0.200,2296.000,0.300,338.000,0.500,34.000,1.000,1.000,5.000,0
"03/06/08","17:10:02",37407.000,"cc",28404.125,6.00,6,0.100,34664.000,0.200,2365.000,0.300,319.000,0.500,57.000,1.000,2.000,5.000,0
"03/06/08","17:10:08",37168.000,"cc",28294.967,6.00,6,0.100,34535.000,0.200,2255.000,0.300,321.000,0.500,57.000,1.000,0,5.000,0
"03/06/08","17:10:14",36881.000,"cc",28337.391,6.00,6,0.100,34204.000,0.200,2237.000,0.300,362.000,0.500,76.000,1.000,2.000,5.000,0
"03/06/08","17:10:20",36818.000,"cc",28330.789,6.00,6,0.100,34142.000,0.200,2299.000,0.300,331.000,0.500,46.000,1.000,0,5.000,0
"03/06/08","17:10:26",37099.000,"cc",28263.982,6.00,6,0.100,34468.000,0.200,2214.000,0.300,342.000,0.500,66.000,1.000,9.000,5.000,0
"03/06/08","17:10:32",36870.000,"cc",28263.416,6.00,6,0.100,34189.000,0.200,2269.000,0.300,362.000,0.500,47.000,1.000,3.000,5.000,0
"03/06/08","17:10:38",37004.000,"cc",28386.209,6.00,6,0.100,34333.000,0.200,2319.000,0.300,303.000,0.500,46.000,1.000,3.000,5.000,0
"03/06/08","17:10:44",37052.000,"cc",28379.354,6.00,6,0.100,34511.000,0.200,2202.000,0.300,303.000,0.500,36.000,1.000,0,5.000,0
"03/06/08","17:10:50",36793.000,"cc",28296.549,6.00,6,0.100,34112.000,0.200,2265.000,0.300,352.000,0.500,62.000,1.000,2.000,5.000,0
"03/06/08","17:10:56",36945.000,"cc",28335.035,6.00,6,0.100,34390.000,0.200,2205.000,0.300,309.000,0.500,40.000,1.000,1.000,5.000,0
"03/06/08","17:11:02",37390.000,"cc",28324.420,6.00,6,0.100,34504.000,0.200,2374.000,0.300,407.000,0.500,102.000,1.000,3.000,5.000,0
"03/06/08","17:11:08",37483.000,"cc",28297.215,6.00,6,0.100,34650.000,0.200,2392.000,0.300,365.000,0.500,72.000,1.000,4.000,5.000,0
"03/06/08","17:11:14",37362.000,"cc",28389.268,6.00,6,0.100,34606.000,0.200,2353.000,0.300,342.000,0.500,58.000,1.000,3.000,5.000,0
"03/06/08","17:11:20",37165.000,"cc",28295.338,6.00,6,0.100,34451.000,0.200,2334.000,0.300,339.000,0.500,41.000,1.000,0,5.000,0
"03/06/08","17:11:26",37196.000,"cc",28267.436,6.00,6,0.100,34425.000,0.200,2370.000,0.300,359.000,0.500,42.000,1.000,0,5.000,0
"03/06/08","17:11:32",37217.000,"cc",28300.047,6.00,6,0.100,34493.000,0.200,2351.000,0.300,329.000,0.500,42.000,1.000,2.000,5.000,0
"03/06/08","17:11:38",37119.000,"cc",28336.981,6.00,6,0.100,34347.000,0.200,2406.000,0.300,312.000,0.500,54.000,1.000,0,5.000,0
"03/06/08","17:11:44",37447.000,"cc",28307.293,6.00,6,0.100,34639.000,0.200,2409.000,0.300,332.000,0.500,64.000,1.000,3.000,5.000,0
"03/06/08","17:11:50",37350.000,"cc",28359.356,6.00,6,0.100,34575.000,0.200,2360.000,0.300,369.000,0.500,46.000,1.000,0,5.000,0
"03/06/08","17:11:56",37386.000,"cc",28272.045,6.00,6,0.100,34617.000,0.200,2348.000,0.300,362.000,0.500,58.000,1.000,1.000,5.000,0
"03/06/08","17:12:02",37425.000,"cc",28253.731,6.00,6,0.100,34533.000,0.200,2433.000,0.300,408.000,0.500,48.000,1.000,3.000,5.000,0
"03/06/08","17:12:08",37705.000,"cc",28291.629,6.00,6,0.100,34917.000,0.200,2341.000,0.300,379.000,0.500,67.000,1.000,1.000,5.000,0
"03/06/08","17:12:14",37599.000,"cc",28374.520,6.00,6,0.100,34741.000,0.200,2393.000,0.300,396.000,0.500,69.000,1.000,0,5.000,0
"03/06/08","17:12:20",37648.000,"cc",28350.623,6.00,6,0.100,34885.000,0.200,2359.000,0.300,346.000,0.500,58.000,1.000,0,5.000,0
"03/06/08","17:12:26",37486.000,"cc",28311.152,6.00,6,0.100,34649.000,0.200,2387.000,0.300,390.000,0.500,58.000,1.000,2.000,5.000,0
"03/06/08","17:12:32",37597.000,"cc",28352.449,6.00,6,0.100,34809.000,0.200,2395.000,0.300,339.000,0.500,53.000,1.000,1.000,5.000,0
"03/06/08","17:12:38",37249.000,"cc",28304.434,6.00,6,0.100,34501.000,0.200,2370.000,0.300,344.000,0.500,33.000,1.000,1.000,5.000,0
"03/06/08","17:12:44",37112.000,"cc",28263.926,6.00,6,0.100,34487.000,0.200,2282.000,0.300,310.000,0.500,32.000,1.000,1.000,5.000,0
"03/06/08","17:12:50",37875.000,"cc",28299.174,6.00,6,0.100,35161.000,0.200,2346.000,0.300,331.000,0.500,36.000,1.000,1.000,5.000,0
"03/06/08","17:12:56",37831.000,"cc",28380.277,6.00,6,0.100,34935.000,0.200,2441.000,0.300,385.000,0.500,67.000,1.000,3.000,5.000,0
"03/06/08","17:13:02",37595.000,"cc",28330.326,6.00,6,0.100,34716.000,0.200,2467.000,0.300,348.000,0.500,63.000,1.000,1.000,5.000,0
"03/06/08","17:13:08",37842.000,"cc",28342.652,6.00,6,0.100,34946.000,0.200,2476.000,0.300,371.000,0.500,47.000,1.000,2.000,5.000,0
"03/06/08","17:13:14",37331.000,"cc",28363.647,6.00,6,0.100,34651.000,0.200,2305.000,0.300,321.000,0.500,51.000,1.000,3.000,5.000,0
"03/06/08","17:13:20",37431.000,"cc",28312.223,6.00,6,0.100,34649.000,0.200,2436.000,0.300,315.000,0.500,30.000,1.000,1.000,5.000,0
"03/06/08","17:13:26",37831.000,"cc",28260.008,6.00,6,0.100,35094.000,0.200,2385.000,0.300,314.000,0.500,36.000,1.000,2.000,5.000,0
"03/06/08","17:13:32",37521.000,"cc",28225.805,6.00,6,0.100,34671.000,0.200,2432.000,0.300,360.000,0.500,58.000,1.000,0,5.000,0
"03/06/08","17:13:38",37343.000,"cc",28202.342,6.00,6,0.100,34626.000,0.200,2338.000,0.300,330.000,0.500,47.000,1.000,2.000,5.000,0
"03/06/08","17:13:44",38210.000,"cc",28368.973,6.00,6,0.100,35477.000,0.200,2381.000,0.300,304.000,0.500,46.000,1.000,2.000,5.000,0
"03/06/08","17:13:50",37671.000,"cc",28334.107,6.00,6,0.100,34776.000,0.200,2473.000,0.300,373.000,0.500,48.000,1.000,1.000,5.000,0
"03/06/08","17:13:56",37843.000,"cc",28356.627,6.00,6,0.100,35008.000,0.200,2394.000,0.300,382.000,0.500,58.000,1.000,1.000,5.000,0
"03/06/08","17:14:02",37671.000,"cc",28345.356,6.00,6,0.100,34914.000,0.200,2388.000,0.300,312.000,0.500,55.000,1.000,2.000,5.000,0
"03/06/08","17:14:08",37826.000,"cc",28301.479,6.00,6,0.100,34877.000,0.200,2481.000,0.300,397.000,0.500,68.000,1.000,3.000,5.000,0
"03/06/08","17:14:14",37553.000,"cc",28281.488,6.00,6,0.100,34629.000,0.200,2459.000,0.300,409.000,0.500,56.000,1.000,0,5.000,0
"03/06/08","17:14:20",38016.000,"cc",28247.143,6.00,6,0.100,35101.000,0.200,2419.000,0.300,393.000,0.500,98.000,1.000,5.000,5.000,0
"03/06/08","17:14:26",37462.000,"cc",28303.356,6.00,6,0.100,34775.000,0.200,2271.000,0.300,369.000,0.500,45.000,1.000,2.000,5.000,0
"03/06/08","17:14:32",37462.000,"cc",28353.152,6.00,6,0.100,34636.000,0.200,2423.000,0.300,348.000,0.500,55.000,1.000,0,5.000,0
"03/06/08","17:14:38",37842.000,"cc",28378.379,6.00,6,0.100,35105.000,0.200,2354.000,0.300,333.000,0.500,49.000,1.000,1.000,5.000,0
"03/06/08","17:14:44",37804.000,"cc",28317.574,6.00,6,0.100,34965.000,0.200,2451.000,0.300,336.000,0.500,48.000,1.000,4.000,5.000,0
"03/06/08","17:14:50",37608.000,"cc",28306.129,6.00,6,0.100,34751.000,0.200,2471.000,0.300,352.000,0.500,32.000,1.000,2.000,5.000,0
"03/06/08","17:14:56",38077.000,"cc",28306.705,6.00,6,0.100,35078.000,0.200,2501.000,0.300,434.000,0.500,64.000,1.000,0,5.000,0
"03/06/08","17:15:02",38027.000,"cc",28297.340,6.00,6,0.100,35099.000,0.200,2484.000,0.300,371.000,0.500,72.000,1.000,1.000,5.000,0
"03/06/08","17:15:08",38032.000,"cc",28359.633,6.00,6,0.100,35078.000,0.200,2491.000,0.300,393.000,0.500,66.000,1.000,4.000,5.000,0
"03/06/08","17:15:14",37604.000,"cc",28376.277,6.00,6,0.100,34703.000,0.200,2443.000,0.300,393.000,0.500,64.000,1.000,1.000,5.000,0
"03/06/08","17:15:20",38073.000,"cc",28328.893,6.00,6,0.100,35103.000,0.200,2500.000,0.300,386.000,0.500,82.000,1.000,2.000,5.000,0
"03/06/08","17:15:26",37458.000,"cc",28281.641,6.00,6,0.100,34656.000,0.200,2404.000,0.300,343.000,0.500,49.000,1.000,6.000,5.000,0
"03/06/08","17:15:32",37684.000,"cc",28247.705,6.00,6,0.100,34772.000,0.200,2443.000,0.300,405.000,0.500,62.000,1.000,2.000,5.000,0
"03/06/08","17:15:38",37904.000,"cc",28307.672,6.00,6,0.100,35013.000,0.200,2430.000,0.300,398.000,0.500,59.000,1.000,4.000,5.000,0
"03/06/08","17:15:44",37686.000,"cc",28336.813,6.00,6,0.100,34688.000,0.200,2493.000,0.300,436.000,0.500,69.000,1.000,0,5.000,0
"03/06/08","17:15:50",38513.000,"cc",28307.315,6.00,6,0.100,35270.000,0.200,2559.000,0.300,560.000,0.500,119.000,1.000,5.000,5.000,0
"03/06/08","17:15:56",37720.000,"cc",28364.664,6.00,6,0.100,34562.000,0.200,2633.000,0.300,442.000,0.500,81.000,1.000,2.000,5.000,0
"03/06/08","17:16:02",38007.000,"cc",28295.152,6.00,6,0.100,35185.000,0.200,2354.000,0.300,385.000,0.500,83.000,1.000,0,5.000,0
"03/06/08","17:16:08",38041.000,"cc",28265.684,6.00,6,0.100,35008.000,0.200,2531.000,0.300,427.000,0.500,74.000,1.000,1.000,5.000,0
"03/06/08","17:16:14",37519.000,"cc",28241.881,6.00,6,0.100,34832.000,0.200,2323.000,0.300,323.000,0.500,40.000,1.000,1.000,5.000,0
"03/06/08","17:16:20",37904.000,"cc",28369.459,6.00,6,0.100,34899.000,0.200,2513.000,0.300,421.000,0.500,69.000,1.000,2.000,5.000,0
"03/06/08","17:16:26",37856.000,"cc",28405.340,6.00,6,0.100,35045.000,0.200,2407.000,0.300,364.000,0.500,39.000,1.000,1.000,5.000,0
"03/06/08","17:16:32",37700.000,"cc",28331.385,6.00,6,0.100,34860.000,0.200,2434.000,0.300,353.000,0.500,51.000,1.000,2.000,5.000,0
"03/06/08","17:16:38",37505.000,"cc",28357.994,6.00,6,0.100,34756.000,0.200,2308.000,0.300,381.000,0.500,58.000,1.000,2.000,5.000,0
"03/06/08","17:16:44",37853.000,"cc",28258.764,6.00,6,0.100,35008.000,0.200,2378.000,0.300,376.000,0.500,88.000,1.000,3.000,5.000,0
"03/06/08","17:16:50",37689.000,"cc",28308.699,6.00,6,0.100,34794.000,0.200,2467.000,0.300,362.000,0.500,63.000,1.000,3.000,5.000,0
"03/06/08","17:16:56",36974.000,"cc",28379.340,6.00,6,0.100,34214.000,0.200,2332.000,0.300,374.000,0.500,51.000,1.000,3.000,5.000,0
"03/06/08","17:17:02",37347.000,"cc",28275.957,6.00,6,0.100,34551.000,0.200,2368.000,0.300,364.000,0.500,63.000,1.000,1.000,5.000,0